Weather History for Santa Fe, NM

Change the Weather History Date:

Friday, October 14, 2011

  Actual Average Record
Temperature  
Mean Temperature 60 °F -  
Max Temperature 75 °F 66 °F 78 °F (1998)
Min Temperature 44 °F 29 °F 27 °F (1978)
Degree Days  
Heating Degree Days 6    
Growing Degree Days 10 (Base 50)    
Moisture  
Dew Point 26 °F    
Average Humidity 31    
Maximum Humidity 48    
Minimum Humidity 15    
Precipitation  
Precipitation 0.00 in - - ()
Sea Level Pressure  
Sea Level Pressure 29.94 in    
Wind  
Wind Speed 8 mph (North)    
Max Wind Speed 16 mph    
Max Gust Speed 20 mph    
Visibility 10 miles    
Events      
Averages and records for this station are not official NWS values.
T = Trace of Precipitation, MM = Missing Value Source: NWS Daily Summary

Daily Weather History Graph

Daily Weather History Graph

Search for Another Location

Airport:

Trip Planner

Search our weather history database for the weather conditions in past years. The results will help you decide how hot, cold, wet, or windy it might be!

Date:

Astronomy

Oct. 14, 2011 Rise Set
Actual Time 7:09 AM MDT 6:30 PM MDT
Civil Twilight 6:44 AM MDT 6:56 PM MDT
Nautical Twilight 6:14 AM MDT 7:25 PM MDT
Astronomical Twilight 5:44 AM MDT 7:55 PM MDT
Moon 7:53 PM MDT (10/14) 9:33 AM MDT (10/14)
Length of Visible Light 12h 11m
Length of Day
11h 20m
Waning Gibbous, 94% of the Moon is Illuminated
Oct 14
Waning Gibbous
Oct 19
Last Quarter
Oct 26
New
Nov 2
First Quarter
Nov 10
Full

Hourly Weather History & Observations

Time (MDT) Temp. Windchill Dew Point Humidity Pressure Visibility Wind Dir Wind Speed Gust Speed Precip Events Conditions
12:53 AM 50.0 °F - 24.1 °F 36% 29.91 in 10.0 mi Calm Calm - N/A   Clear
1:53 AM 48.0 °F - 24.1 °F 39% 29.92 in 10.0 mi North 9.2 mph - N/A   Clear
2:53 AM 48.9 °F - 23.0 °F 36% 29.90 in 10.0 mi North 9.2 mph - N/A   Clear
3:53 AM 48.9 °F - 23.0 °F 36% 29.88 in 10.0 mi North 10.4 mph - N/A   Clear
4:53 AM 48.0 °F - 23.0 °F 37% 29.89 in 10.0 mi NNE 4.6 mph - N/A   Clear
5:53 AM 44.1 °F 38.1 °F 25.0 °F 47% 29.93 in 10.0 mi North 11.5 mph - N/A   Clear
7:53 AM 46.0 °F 41.4 °F 27.0 °F 47% 29.99 in 10.0 mi North 9.2 mph - N/A   Clear
8:53 AM 51.1 °F - 28.0 °F 41% 30.02 in 10.0 mi North 16.1 mph - N/A   Clear
9:53 AM 57.9 °F - 28.9 °F 33% 30.00 in 10.0 mi North 13.8 mph - N/A   Clear
10:53 AM 63.0 °F - 28.9 °F 28% 29.98 in 10.0 mi North 13.8 mph - N/A   Clear
11:53 AM 68.0 °F - 28.9 °F 23% 29.96 in 10.0 mi North 15.0 mph - N/A   Clear
1:53 PM 73.9 °F - 27.0 °F 18% 29.89 in 10.0 mi North 11.5 mph 19.6 mph N/A   Clear
2:53 PM 73.9 °F - 24.1 °F 16% 29.88 in 10.0 mi North 12.7 mph - N/A   Clear
3:53 PM 75.0 °F - 24.1 °F 15% 29.88 in 10.0 mi NNW 12.7 mph - N/A   Clear
4:53 PM 73.9 °F - 24.1 °F 16% 29.88 in 10.0 mi Variable 6.9 mph - N/A   Clear
5:53 PM 72.0 °F - 24.1 °F 17% 29.92 in 10.0 mi North 4.6 mph - N/A   Clear
6:53 PM 64.9 °F - 24.1 °F 21% 29.96 in 10.0 mi NW 3.5 mph - N/A   Clear
7:53 PM 55.9 °F - 27.0 °F 33% 29.99 in 10.0 mi North 5.8 mph - N/A   Clear
8:53 PM 55.0 °F - 26.1 °F 33% 29.99 in 10.0 mi North 4.6 mph - N/A   Clear
9:53 PM 52.0 °F - 28.0 °F 40% 30.00 in 10.0 mi NE 5.8 mph - N/A   Clear
11:53 PM 48.9 °F - 30.0 °F 48% 30.00 in 10.0 mi SSE 4.6 mph - N/A   Clear